Theta_e
338 338 337 337 337 336 335 333 333 333 331 333 336 335 334 336 334 334 335 335 333 332 332 333 334 334 334 334 334 333 333 333 333 332 330 328 324 323 324 325 326 326 325 326 326 326 325 325 324 324 324 324 323 322 320 320 322 323 323 322 322 322 322 322 322 321 321 321 321 322 322 323 324 324 323 323 323 323 323 323 324 324 324 324 323
338 338 338 337 337 336 336 334 333 332 332 333 335 335 335 335 335 335 335 334 332 332 332 333 334 334 334 333 333 334 333 332 332 332 330 330 326 321 319 322 324 323 322 325 326 326 326 327 327 326 324 321 319 316 313 314 318 320 321 321 320 320 321 321 322 321 320 320 321 322 322 323 323 323 323 324 324 324 323 322 323 324 325 325 324
337 337 337 337 336 336 336 335 334 332 332 333 334 335 335 335 336 337 336 334 332 331 332 333 334 334 334 333 332 333 333 332 332 332 331 330 328 320 316 321 323 322 324 326 327 327 328 328 326 323 320 317 314 312 310 311 314 317 318 318 318 320 321 322 322 322 320 319 320 322 322 322 323 322 323 323 324 324 322 322 323 324 324 325 325
337 337 337 336 335 335 335 335 335 333 333 334 334 335 335 336 337 338 336 334 332 331 332 333 333 334 334 333 333 333 332 332 331 331 331 330 326 316 311 317 321 323 327 328 328 328 328 326 323 323 321 318 314 312 312 311 312 317 319 320 321 321 322 322 322 321 320 318 320 322 322 322 323 322 323 323 323 322 322 323 323 324 324 325 325
337 338 338 337 336 335 335 335 335 335 335 334 334 335 336 336 336 336 335 333 332 332 332 332 333 333 334 333 333 333 332 332 330 330 330 328 326 316 309 313 320 325 328 328 329 329 327 325 325 328 327 324 320 315 313 311 315 320 321 322 323 323 323 323 322 321 319 319 321 323 323 323 323 323 323 322 322 322 323 323 324 324 325 325 325
337 338 338 338 337 336 335 335 336 335 335 334 334 336 336 336 335 334 334 333 333 333 333 332 333 334 334 334 334 333 333 332 331 330 329 326 326 322 315 316 321 325 326 328 329 328 327 327 329 331 330 329 325 320 317 315 319 323 323 324 324 324 325 325 325 323 321 321 323 324 323 323 323 323 323 322 323 323 323 323 324 325 325 326 325
337 337 337 337 337 336 335 335 335 335 335 335 336 336 336 336 335 334 334 334 333 333 333 333 333 335 336 335 335 334 333 332 330 330 330 328 327 327 325 324 324 325 325 326 328 328 328 330 331 331 331 331 329 326 323 322 323 324 324 324 325 325 326 326 327 325 323 322 323 324 324 324 323 323 323 323 324 324 324 323 324 325 325 325 324
339 338 336 336 336 336 335 335 334 335 336 336 337 336 335 335 334 333 334 334 333 333 333 333 334 335 336 336 335 335 334 332 331 330 331 330 330 330 330 330 329 328 328 326 327 328 328 330 331 331 330 330 330 330 328 326 325 324 324 325 326 326 326 327 327 327 326 324 323 324 325 325 324 323 323 323 324 324 324 324 324 325 325 324 323
339 338 337 336 335 336 335 334 334 335 336 336 336 336 335 334 333 333 334 334 334 334 334 333 334 334 335 336 336 335 334 333 331 330 330 330 332 332 330 331 331 332 331 329 328 328 329 330 330 330 330 330 330 330 330 330 328 326 325 326 326 326 327 327 327 327 327 325 324 324 325 325 323 322 323 323 324 325 325 325 325 325 325 323 322
338 338 337 336 336 335 335 336 335 335 336 335 335 335 335 334 334 334 334 334 334 335 334 333 333 333 333 335 336 335 335 334 332 330 330 330 331 332 331 332 331 332 332 331 330 329 329 329 329 330 330 330 329 329 330 330 330 329 327 327 327 327 327 328 327 327 327 326 324 324 324 324 324 322 321 321 321 321 323 324 325 325 324 323 322
337 337 337 337 336 335 335 335 335 335 335 335 335 335 335 334 334 334 334 335 335 335 334 333 332 332 332 333 335 334 335 335 332 330 329 329 330 330 331 332 331 331 331 331 331 331 329 328 328 329 329 329 329 329 330 330 330 330 329 328 327 327 328 328 327 327 327 326 325 323 324 324 324 323 321 320 318 314 312 316 320 322 323 323 321
337 337 338 337 336 335 335 335 335 335 335 335 335 335 335 334 334 335 334 334 335 334 334 332 331 332 331 332 333 333 334 334 332 331 329 329 329 330 330 331 331 331 331 331 331 331 331 327 326 327 328 328 329 329 330 330 329 330 330 329 328 328 328 328 327 327 326 326 324 323 323 324 324 323 322 321 319 312 304 305 310 315 318 319 317
337 338 338 338 336 335 335 335 335 335 335 335 335 334 335 335 334 336 335 333 333 333 333 331 331 331 331 332 332 331 334 334 333 331 330 329 329 330 329 331 332 331 331 331 331 331 331 329 327 329 330 328 328 329 329 329 329 329 330 329 329 328 328 328 327 327 326 325 323 321 321 323 324 323 322 321 318 310 303 303 305 307 311 311 308
338 338 338 338 336 336 335 335 335 335 335 336 335 334 335 335 335 335 334 333 333 333 332 331 331 331 330 331 332 332 334 335 333 332 331 330 330 330 329 331 332 331 331 331 331 331 330 330 331 331 331 328 327 328 328 328 328 329 330 330 329 328 328 328 327 327 326 322 319 319 320 323 324 323 322 319 314 307 303 303 303 303 304 303 301
337 337 338 338 336 335 335 334 334 334 335 336 335 333 333 334 334 334 334 333 332 333 332 332 332 331 330 331 333 333 335 334 333 333 332 331 331 331 330 330 331 331 331 331 331 331 330 331 332 332 332 329 326 325 326 327 327 328 330 330 329 328 328 328 328 326 321 317 318 319 320 323 323 322 322 317 310 304 302 301 300 300 300 299 298
337 337 337 337 336 336 335 335 334 333 335 336 335 334 332 332 332 332 333 333 332 332 332 332 332 332 331 332 333 333 335 334 333 333 332 332 331 331 331 331 331 330 331 331 330 330 330 330 331 331 331 330 327 326 327 328 327 327 329 329 329 329 328 328 326 318 311 314 320 321 321 323 322 322 321 315 306 302 301 299 299 298 299 300 297
337 337 336 336 336 336 335 335 335 334 334 335 335 335 333 332 330 329 331 332 333 333 332 332 332 332 331 332 333 334 335 334 334 334 331 331 332 331 331 331 330 330 330 330 329 329 329 330 330 330 330 330 329 328 330 329 327 327 328 328 328 328 328 327 320 309 306 316 322 321 321 322 320 320 319 311 303 301 299 298 298 298 300 302 301
337 337 337 336 336 336 336 335 335 335 335 335 335 335 334 334 332 330 330 331 333 333 332 331 331 331 330 332 333 334 334 334 335 335 333 332 332 332 331 330 330 330 330 330 329 329 329 329 330 330 330 329 329 329 328 327 326 326 327 327 328 327 326 321 310 304 309 318 321 320 320 320 318 316 313 305 301 300 298 298 297 297 299 301 303
337 337 337 336 336 337 336 336 335 335 335 335 336 335 335 335 333 332 331 332 333 333 332 331 332 332 331 332 333 332 332 332 333 335 335 333 332 332 332 331 329 330 330 329 329 328 329 329 330 330 330 328 329 328 326 325 326 326 326 326 325 322 318 311 304 305 312 318 321 320 319 318 315 310 306 302 299 299 298 297 297 297 297 297 300
336 336 337 336 336 337 337 336 336 335 335 335 335 335 335 336 335 334 333 333 333 333 332 332 332 333 333 333 334 332 332 332 332 333 333 334 333 332 332 331 330 330 330 329 329 329 329 329 330 331 330 328 328 326 325 326 327 326 324 320 317 315 312 307 304 307 313 318 320 318 316 313 308 304 302 300 298 298 297 297 297 298 298 298 298
337 336 336 336 336 336 336 336 336 335 335 334 334 334 335 336 335 335 334 333 333 333 332 332 332 333 333 334 333 333 332 332 332 331 330 332 334 333 332 331 331 331 330 329 329 329 329 329 330 330 329 328 326 325 326 326 326 326 322 314 310 311 311 306 304 309 315 319 319 314 309 305 302 300 299 298 298 297 297 297 297 298 298 298 298
337 336 336 336 337 337 337 337 336 336 335 335 334 334 334 335 335 335 335 334 333 332 331 332 333 333 333 333 333 333 332 331 331 331 330 332 334 333 332 331 331 331 331 330 329 330 329 328 329 329 329 328 326 325 326 325 324 325 323 314 307 308 309 306 305 309 312 315 314 309 305 302 300 299 298 297 297 297 297 297 297 297 297 297 298
336 336 336 336 336 336 336 336 335 335 336 335 335 334 334 335 335 335 334 334 334 333 332 332 333 333 332 332 332 333 332 331 332 331 331 332 332 331 331 331 331 331 331 331 330 330 330 329 328 328 329 328 326 325 325 325 324 323 323 315 305 305 308 305 305 306 308 308 306 305 304 302 300 298 297 297 297 297 297 297 297 297 297 298 298
335 335 335 335 336 336 336 336 335 335 334 335 335 335 334 335 335 335 334 334 334 333 333 332 333 334 333 332 331 332 332 332 332 331 330 331 331 331 331 331 331 330 331 332 330 330 330 329 328 328 329 328 326 325 323 324 324 323 322 316 306 304 306 305 304 302 303 303 301 301 303 302 300 298 297 298 297 297 297 297 298 298 298 298 298
335 335 334 335 335 335 336 335 335 335 334 333 334 334 335 335 335 335 335 335 334 334 334 333 333 333 333 332 331 331 331 331 332 331 330 330 330 330 330 329 329 330 331 332 331 331 330 330 329 328 328 328 327 325 323 323 323 323 321 312 304 304 305 305 303 300 300 300 299 299 301 302 299 297 298 298 297 298 299 298 298 298 299 299 299
334 334 334 335 335 335 334 334 334 334 334 333 333 332 333 334 334 334 334 334 334 334 334 333 333 333 333 333 332 331 330 331 331 331 330 330 330 330 330 329 329 329 330 332 331 331 330 330 329 328 328 328 327 325 323 323 322 323 322 311 303 305 305 304 303 300 299 300 298 298 300 301 298 297 298 298 297 300 300 299 298 299 300 301 302
334 333 334 334 335 335 334 333 333 333 334 333 332 332 331 332 334 335 334 334 334 334 333 333 333 333 333 333 332 331 331 331 331 331 330 330 330 330 330 329 329 329 330 332 331 331 331 330 330 329 328 328 327 325 323 323 321 322 323 315 305 304 306 304 302 300 299 299 299 299 300 300 298 297 298 297 299 301 300 298 299 301 303 305 306
333 333 333 333 334 335 334 333 333 333 333 333 332 333 331 330 332 334 334 333 334 334 333 332 333 333 333 333 333 332 331 331 331 331 331 330 330 330 330 329 329 330 331 332 332 331 330 330 330 329 328 328 327 325 323 323 322 321 322 318 309 304 306 304 300 300 300 299 299 299 299 299 298 298 298 298 299 300 300 299 300 303 306 308 309
333 333 333 333 334 334 334 334 333 332 332 332 332 333 331 330 332 334 334 334 334 334 334 333 333 333 333 333 332 332 331 331 331 331 331 330 330 330 329 328 329 330 331 332 331 330 330 330 330 329 329 328 327 325 323 323 322 320 320 318 310 305 305 304 300 300 300 300 299 299 299 299 298 298 298 298 299 300 299 300 302 306 309 310 310
329 331 331 333 333 333 334 334 334 333 332 332 333 333 332 332 332 333 333 333 333 333 334 333 333 333 333 332 332 332 332 332 331 331 331 331 331 330 329 329 329 329 330 331 331 330 330 331 330 329 328 328 326 324 323 322 322 320 317 314 309 306 306 304 301 300 300 300 300 299 300 299 299 299 299 299 299 299 300 302 305 308 309 310 309
325 327 328 330 332 332 333 333 333 333 332 332 332 332 332 332 332 332 333 333 333 333 334 333 332 332 332 332 332 332 332 331 331 331 331 331 331 329 329 329 329 329 329 330 332 332 330 330 330 329 328 328 326 323 322 321 320 319 316 310 306 306 306 304 301 300 300 301 300 300 300 300 299 299 299 299 299 300 302 305 308 309 309 309 309
323 324 325 327 329 330 331 332 331 331 331 330 330 330 330 331 331 332 332 332 333 333 332 332 332 331 332 332 332 332 332 331 331 332 332 332 331 330 330 330 329 329 328 329 332 331 329 329 329 328 327 328 326 323 322 320 319 319 315 311 311 310 307 304 301 300 300 301 301 301 300 300 300 300 300 300 300 302 305 308 309 310 309 309 308
321 322 323 324 326 327 329 330 330 329 329 329 329 328 329 329 330 331 332 332 332 331 331 331 331 331 332 332 332 332 332 332 332 332 332 333 332 330 331 331 329 328 328 329 330 330 330 330 328 327 327 327 326 324 321 319 319 318 315 315 319 319 312 305 301 300 301 301 301 302 301 301 300 300 300 300 302 305 308 310 310 310 309 309 308
318 320 321 322 324 325 326 328 329 329 328 328 329 329 329 329 328 329 331 332 331 330 331 332 332 332 331 331 331 331 332 332 331 331 332 333 332 331 331 331 329 328 328 329 329 329 329 330 328 327 327 327 326 325 321 319 319 318 314 313 318 323 320 311 302 299 300 301 302 302 302 302 301 301 301 301 304 308 310 310 310 309 309 309 308
316 317 318 319 320 322 324 326 329 330 329 327 327 328 328 329 328 327 329 331 331 331 332 332 332 332 331 330 329 330 330 331 330 330 331 333 333 332 331 330 330 328 328 329 328 327 326 327 328 327 327 327 326 326 323 320 319 317 314 312 313 320 324 320 311 304 300 300 302 302 303 303 303 302 302 302 305 309 311 310 310 310 309 309 309
313 314 314 315 316 319 321 324 327 328 329 328 327 327 328 329 329 328 329 331 331 331 331 331 331 331 331 330 329 330 331 330 330 329 330 332 333 332 331 330 330 329 328 328 328 327 327 327 328 328 328 327 327 326 323 320 318 316 314 314 315 318 322 322 319 312 304 300 301 303 303 304 304 304 303 304 306 310 311 311 310 310 309 309 309
311 311 311 311 313 315 317 321 324 326 327 327 326 326 327 328 330 329 329 329 330 331 330 329 329 330 330 330 330 331 331 330 330 330 330 331 332 332 331 330 330 329 328 328 327 328 328 327 327 328 329 327 326 326 324 319 318 317 314 314 317 319 319 319 320 317 309 302 300 302 303 304 304 305 304 305 307 310 311 311 310 310 310 310 309
309 309 308 308 309 312 313 317 321 322 321 320 319 320 323 325 328 329 328 328 329 329 328 327 328 328 329 330 330 330 331 330 330 329 329 330 330 332 331 330 330 329 328 328 328 329 328 327 327 328 328 328 326 326 325 321 319 318 315 313 315 318 318 318 317 316 313 308 303 301 302 303 304 305 305 305 307 309 311 311 311 311 310 310 310
308 307 306 306 307 308 309 312 316 316 314 315 315 316 318 320 323 326 328 328 329 329 328 327 328 329 328 329 330 330 330 331 330 329 329 330 330 331 331 330 330 330 328 328 329 329 328 327 327 328 327 327 327 326 325 323 321 321 317 313 312 315 317 316 315 314 314 312 308 304 303 303 303 304 305 305 306 307 309 310 311 311 311 311 311
307 306 305 305 305 305 305 307 311 311 310 309 309 310 313 316 319 322 325 327 328 329 328 328 328 329 328 328 328 329 329 330 331 330 330 330 330 330 330 330 331 331 329 328 328 328 328 327 327 327 326 325 326 326 325 324 321 321 319 315 312 313 314 315 315 312 312 314 312 307 304 304 303 303 304 305 306 306 307 308 309 310 310 310 310
306 306 305 304 304 304 303 304 306 308 305 303 303 305 307 311 314 318 322 324 327 328 328 328 329 328 328 328 327 328 329 330 331 331 330 330 329 329 330 331 331 330 328 327 327 327 327 326 327 327 325 324 325 325 324 323 321 320 320 316 314 313 313 315 315 313 312 314 313 310 307 306 304 303 304 304 304 305 306 307 307 308 308 308 308
306 305 305 304 304 303 302 302 303 304 302 299 300 303 305 307 310 314 318 321 325 327 328 328 328 328 329 329 329 329 330 330 330 331 331 330 329 329 331 331 331 330 328 326 326 327 327 326 327 327 325 324 325 325 323 320 319 320 320 317 315 315 315 315 315 314 313 313 313 311 310 309 308 305 304 304 303 304 304 304 305 306 306 306 306
306 305 304 304 304 303 302 301 301 302 300 298 299 301 304 306 308 311 314 318 321 324 326 328 328 327 328 329 330 330 330 329 329 329 330 330 330 330 331 331 331 331 329 326 326 327 327 327 327 327 325 324 324 324 321 319 319 319 319 318 316 316 316 316 316 315 314 314 313 312 311 311 310 308 307 306 305 304 304 304 304 304 304 304 305
306 305 305 304 304 303 302 302 301 301 300 298 298 300 302 304 306 309 312 315 318 321 324 326 327 327 327 328 330 330 329 328 328 328 329 330 330 330 330 331 330 331 329 328 327 327 327 327 327 327 325 324 324 324 321 318 319 319 318 318 317 316 316 316 317 316 315 314 314 313 313 313 313 311 309 309 308 307 306 306 305 304 304 304 304
305 305 305 304 304 303 302 302 301 301 299 298 298 299 300 303 305 308 311 314 316 319 322 323 325 327 328 329 329 329 330 330 330 329 329 330 330 330 330 330 330 329 329 329 328 328 328 327 327 327 326 325 325 325 323 319 319 319 318 318 317 316 316 317 317 317 316 315 315 316 316 316 316 313 311 310 310 309 308 308 307 306 305 304 304
304 304 304 304 304 303 302 301 301 301 300 298 298 298 299 301 304 307 310 313 315 317 320 322 324 325 326 327 328 328 328 329 330 330 330 330 330 330 329 328 328 329 329 328 328 328 327 327 326 326 326 325 325 325 323 321 321 321 319 318 318 318 318 318 317 318 319 317 316 317 317 317 316 314 313 312 312 311 310 310 309 309 308 308 309
303 303 303 303 303 303 302 301 301 301 300 298 297 297 298 300 303 306 310 312 313 315 318 320 322 323 324 326 326 327 327 328 328 328 329 329 330 329 328 327 327 328 328 328 328 328 327 327 326 326 326 326 326 325 324 323 324 323 321 321 321 321 321 321 320 321 320 318 316 317 317 317 316 315 315 315 314 313 312 312 312 311 311 312 312
303 303 303 302 302 301 301 301 300 300 299 298 297 297 297 299 302 305 307 309 311 314 316 318 320 323 324 325 326 326 327 327 327 327 327 328 329 328 326 325 326 326 326 327 327 328 328 327 327 327 327 327 326 326 325 324 325 324 323 323 323 323 322 323 322 322 321 319 319 318 317 318 318 316 315 314 314 314 314 313 313 312 312 312 311
302 302 302 302 301 300 300 300 299 299 298 297 297 297 297 297 299 301 302 304 307 311 312 314 318 322 324 325 325 326 326 326 326 326 326 326 327 326 325 325 325 324 324 325 326 327 327 327 327 327 328 327 326 325 326 325 325 325 325 324 323 324 323 322 321 322 322 320 320 320 319 320 319 317 314 314 315 315 314 313 312 312 312 311 309
302 302 302 301 301 300 300 299 299 298 298 297 297 297 297 297 297 297 298 300 302 306 309 311 315 318 321 323 324 325 326 326 326 326 326 326 325 325 325 326 324 322 322 324 325 326 327 327 327 327 328 328 326 325 325 325 325 326 325 324 324 324 323 321 320 321 321 320 320 321 321 320 319 318 316 314 314 314 313 313 312 311 310 309 308
302 302 301 301 301 300 300 299 299 298 297 297 297 297 297 297 297 297 297 297 299 302 305 307 310 312 313 316 319 322 323 325 326 326 325 324 324 324 326 326 323 321 322 323 324 325 325 325 325 326 327 327 327 327 326 324 324 325 324 324 323 322 321 321 320 320 320 319 318 320 320 318 317 318 317 315 314 313 312 313 312 311 309 308 307
Wind_Speed
13 13 13 13 14 15 15 15 14 13 13 15 16 14 14 14 13 12 10 8 7 7 7 6 5 5 6 5 5 6 7 8 8 6 5 6 9 11 12 13 12 11 10 10 10 9 9 9 8 8 8 8 8 8 8 9 10 11 11 10 11 11 11 11 11 10 11 12 12 12 13 13 13 14 15 15 15 15 15 15 17 17 18 20 21
13 13 12 12 13 14 13 14 17 15 13 15 17 16 15 15 14 13 11 8 8 8 7 8 6 6 7 5 5 7 6 7 8 8 10 9 8 8 10 12 12 11 11 11 10 10 9 9 8 8 8 8 8 8 8 9 10 11 11 11 11 11 11 11 10 10 10 11 12 12 12 12 13 13 13 14 14 14 15 15 16 16 16 18 19
12 12 11 10 11 13 12 14 17 17 14 15 17 16 15 14 14 13 12 9 8 8 8 9 8 8 8 6 6 8 7 7 7 11 13 9 5 6 9 12 12 11 11 11 10 10 10 9 9 8 8 8 8 8 9 9 10 11 12 12 12 12 12 11 10 9 10 10 11 12 12 12 12 13 13 13 13 13 14 15 15 14 14 16 17
11 9 9 9 10 12 14 16 16 16 15 14 17 17 14 13 14 14 13 10 10 10 10 9 10 9 9 8 7 8 8 8 7 10 12 7 3 4 9 12 12 13 12 11 10 10 10 10 10 9 8 8 8 9 9 9 11 13 13 14 14 14 14 13 11 10 10 10 11 11 12 12 12 13 13 13 13 13 14 15 15 14 14 15 16
10 8 8 9 11 12 13 15 15 14 15 14 15 15 14 14 15 15 12 10 11 12 10 10 11 10 10 9 8 8 8 8 8 8 8 6 3 4 8 13 13 14 14 12 11 10 10 11 10 8 7 8 8 9 9 9 11 13 14 14 15 14 13 13 13 12 12 11 12 11 12 12 13 13 14 14 15 15 16 16 15 14 16 17 17
12 10 10 10 11 12 12 14 14 13 15 15 14 15 16 14 14 15 13 11 11 10 10 12 11 10 10 9 8 8 8 8 10 9 9 8 7 5 8 12 13 14 14 13 12 11 11 11 9 8 7 7 7 8 9 10 11 12 13 13 12 12 11 10 11 12 12 12 12 11 12 13 13 13 14 15 15 15 15 16 15 14 16 17 18
12 11 12 12 12 12 13 14 14 13 13 13 15 16 15 14 14 15 14 13 12 11 11 12 12 12 11 9 9 9 8 9 11 10 11 12 10 9 8 9 11 11 12 13 13 13 11 11 10 10 9 8 8 8 8 9 10 11 11 10 9 10 10 8 8 10 11 11 11 11 11 12 13 12 13 13 13 13 13 14 14 13 15 16 16
10 10 12 14 14 13 12 13 12 12 12 13 15 15 14 14 15 15 15 15 14 13 13 13 13 13 12 10 10 10 9 9 11 10 11 12 12 13 13 11 10 10 11 12 13 13 12 12 12 11 10 9 9 9 9 9 9 9 8 9 9 9 9 8 8 8 10 10 10 10 10 11 12 12 11 12 13 13 13 14 13 13 14 14 14
8 9 11 14 16 14 13 13 12 13 14 15 15 14 13 14 15 15 16 16 15 13 14 14 12 11 11 12 11 11 10 9 12 11 9 11 12 14 16 14 14 13 13 12 12 13 12 12 11 10 10 10 10 10 10 10 9 9 8 9 10 10 9 8 7 7 8 9 10 10 10 12 12 12 12 12 13 14 14 14 14 13 12 12 12
9 10 11 14 16 15 14 13 13 15 15 15 15 14 14 14 14 15 16 15 15 14 12 14 13 10 11 12 11 11 11 9 12 12 9 10 12 12 14 16 16 15 14 13 12 13 13 12 12 11 11 11 11 11 10 10 11 10 9 9 10 9 9 8 7 7 7 9 10 9 10 12 12 11 12 11 11 12 13 13 12 11 11 10 10
10 11 12 14 15 15 15 14 15 16 15 15 15 14 15 15 14 15 16 14 14 14 12 12 13 10 13 10 10 10 10 10 12 12 10 11 10 10 13 15 14 13 14 14 13 13 13 13 13 12 12 12 12 12 11 11 11 12 11 10 10 9 9 8 7 7 7 9 9 10 10 11 11 10 10 10 9 9 10 10 10 10 10 8 7
11 12 13 14 16 16 16 16 16 16 16 15 15 15 15 16 14 15 17 15 14 14 13 12 10 8 13 11 9 9 9 10 12 11 10 11 10 11 13 14 13 13 14 14 13 14 14 12 12 12 11 12 13 12 12 12 12 12 12 12 11 10 10 8 7 8 9 9 10 10 10 11 10 9 8 8 8 8 8 8 8 8 9 8 7
13 14 14 15 16 16 16 17 17 18 18 16 16 17 15 15 16 17 18 18 15 14 14 12 7 4 8 11 11 11 8 9 12 11 10 12 12 12 13 13 15 16 15 14 14 14 13 12 11 11 11 12 13 13 12 13 13 13 13 13 12 12 10 8 8 10 10 10 11 10 10 11 11 9 7 7 6 7 7 8 8 9 8 8 8
14 14 15 16 17 17 17 18 19 19 19 18 18 19 17 15 18 19 19 19 17 15 15 12 7 7 7 7 9 11 10 11 12 12 11 11 12 13 13 14 16 17 16 15 14 13 13 14 13 13 13 12 13 14 13 13 13 13 13 13 12 12 11 10 10 11 11 11 11 12 12 11 11 9 7 6 6 7 7 7 8 8 8 8 8
14 16 17 17 17 17 19 20 20 20 19 19 19 20 20 18 19 20 19 19 18 17 15 13 10 10 8 4 4 5 7 10 13 14 12 11 14 14 14 16 16 16 16 16 15 14 14 16 16 15 14 12 13 13 12 12 13 14 15 14 13 13 12 12 12 12 11 11 12 13 13 12 11 9 6 6 6 7 7 7 8 8 8 8 8
14 16 18 18 18 18 19 21 21 21 20 21 21 21 21 21 22 22 20 18 17 17 17 17 15 12 8 3 2 2 3 6 10 15 15 13 15 16 15 17 17 16 16 16 16 17 15 15 17 17 16 14 13 12 12 12 12 14 15 15 15 14 14 14 13 11 10 11 13 14 14 12 10 9 7 6 7 7 7 7 8 8 8 9 9
13 15 17 18 18 19 20 22 22 21 21 22 23 22 22 22 23 24 24 21 19 18 18 20 20 17 12 5 1 2 2 4 6 10 16 16 16 18 17 17 17 16 17 16 16 17 16 15 16 17 19 17 14 13 14 14 13 14 15 16 16 15 15 15 12 11 11 13 14 14 13 12 10 10 9 8 8 7 7 7 8 9 10 10 11
12 14 16 17 18 19 20 22 23 22 22 23 23 23 23 23 24 25 26 25 21 18 17 19 20 21 20 13 7 4 2 4 4 2 10 15 15 17 18 19 19 18 18 17 16 17 16 16 16 17 19 17 16 16 15 15 14 15 17 17 18 18 17 15 12 11 12 14 15 14 13 12 11 11 9 9 8 8 8 8 9 10 11 11 11
12 14 16 18 18 19 20 21 23 23 23 24 24 25 24 24 25 26 26 26 24 20 19 19 18 19 23 21 15 10 5 5 4 1 3 9 14 16 16 18 21 20 19 17 17 17 17 18 17 17 18 17 18 17 14 13 14 16 18 19 19 18 16 14 13 13 14 15 15 14 13 12 12 11 10 9 9 8 9 10 10 11 11 11 11
13 15 16 18 19 20 20 21 23 25 25 26 27 27 26 25 25 26 26 26 27 26 23 20 18 18 22 23 20 16 12 9 8 4 0 3 8 13 15 18 21 20 18 18 17 17 18 19 18 18 18 19 19 17 15 16 14 15 18 18 17 16 15 14 14 14 14 14 14 13 12 11 11 11 10 10 9 10 11 11 12 12 11 12 11
13 14 15 16 18 18 19 21 22 24 26 28 29 28 26 26 27 27 27 28 29 29 26 23 22 20 20 21 20 17 16 15 13 9 6 5 4 6 11 15 16 18 19 19 17 17 18 18 19 20 19 20 20 17 19 21 16 16 18 17 16 16 15 15 15 15 15 15 14 13 12 11 11 11 10 10 11 12 13 13 13 12 12 11 11
12 12 14 16 17 17 19 20 20 21 23 25 29 29 27 28 28 29 30 29 29 30 29 27 25 24 22 21 20 18 14 12 13 13 11 8 5 4 8 12 12 14 20 21 18 18 20 18 19 20 20 20 19 17 21 22 16 16 18 17 16 17 17 17 16 16 16 15 14 13 12 11 11 11 11 11 12 13 13 14 13 12 11 11 11
13 12 12 14 15 17 19 21 21 21 22 24 27 28 28 28 28 30 32 31 30 30 30 30 27 25 25 24 23 22 18 15 15 16 12 7 6 4 9 15 14 14 20 22 19 19 20 20 20 20 21 21 19 18 21 21 17 16 18 19 17 18 18 18 17 17 17 16 15 13 12 12 12 12 12 13 13 14 14 13 13 12 11 11 11
16 14 14 14 14 16 19 21 22 22 23 23 25 26 28 28 28 29 30 30 30 28 29 31 30 27 26 27 27 26 25 22 19 20 18 14 8 4 9 13 11 12 19 21 20 20 20 20 21 21 22 22 20 19 20 22 18 15 17 20 18 18 19 18 17 17 17 16 15 14 13 13 13 13 14 14 14 14 14 13 13 13 13 12 12
17 18 17 16 15 16 18 21 22 23 22 23 25 25 26 27 27 28 28 28 29 30 31 32 32 31 29 29 29 27 28 25 21 21 22 18 12 8 10 10 8 12 18 21 20 20 21 22 22 21 23 23 21 19 20 22 19 15 16 20 20 19 20 19 18 18 18 17 16 16 15 14 14 14 15 15 15 15 15 14 14 15 15 15 14
18 19 19 17 17 18 18 19 21 22 22 23 25 24 24 26 26 26 27 27 27 29 33 33 33 33 32 30 30 30 29 26 24 24 23 20 17 13 9 7 8 11 14 19 21 18 19 22 23 22 22 23 22 21 22 22 21 19 19 19 20 21 20 20 19 19 18 18 17 17 17 16 15 15 16 16 16 16 16 16 16 16 17 17 16
21 21 20 18 18 18 19 18 19 21 22 22 23 24 24 24 25 28 27 26 26 30 33 32 31 33 33 31 31 30 29 27 25 26 26 23 19 16 11 5 5 7 7 12 17 18 19 21 23 24 23 23 23 23 25 25 23 22 21 20 21 22 21 21 21 20 19 19 18 18 18 17 16 16 17 17 17 17 17 17 17 17 18 17 16
23 23 21 20 18 19 20 20 20 21 22 21 22 25 24 22 25 29 28 25 27 29 30 31 32 33 33 32 30 29 29 28 27 26 27 26 22 19 18 13 8 6 5 6 9 14 20 21 22 24 24 23 23 23 26 25 23 22 23 22 22 23 23 22 22 21 20 19 19 19 19 18 18 18 18 18 18 18 17 17 17 18 17 16 15
22 22 22 22 20 20 20 21 21 21 21 22 23 24 23 22 23 25 26 27 28 28 28 30 31 32 32 32 31 29 29 28 27 25 25 26 24 22 22 22 15 7 5 6 5 10 19 22 22 22 24 24 23 23 25 23 21 22 24 24 24 24 24 24 24 23 22 21 20 20 20 19 19 20 19 19 19 18 18 18 18 18 17 16 14
24 23 24 24 23 22 22 21 21 20 20 22 22 22 22 23 24 25 26 27 28 28 28 29 31 31 30 31 30 29 28 27 27 26 25 25 24 22 23 24 20 14 8 6 7 11 18 21 22 22 24 25 24 24 24 22 21 22 24 25 25 25 25 25 25 24 23 22 22 21 21 21 21 21 21 21 20 19 19 19 18 18 17 15 14
25 25 25 25 25 25 24 22 20 19 20 21 21 21 22 23 24 26 27 25 25 26 27 28 31 30 29 29 27 28 28 27 27 26 25 26 25 23 24 24 24 23 16 8 5 11 19 21 22 24 25 26 25 24 22 21 22 23 23 24 25 24 25 25 25 26 25 24 23 22 22 22 22 22 22 22 21 20 20 20 19 18 17 15 14
24 25 25 26 26 27 26 25 23 21 21 23 24 23 23 24 25 26 26 24 25 27 27 28 30 29 29 28 27 28 28 27 27 26 25 26 26 26 25 23 22 22 19 13 6 7 17 23 24 24 25 27 26 25 23 21 23 24 24 24 23 22 24 25 26 26 25 25 24 23 23 23 23 23 23 23 23 22 22 21 20 18 17 15 14
23 24 25 25 26 26 27 28 26 23 22 23 25 24 25 27 27 27 26 25 26 27 27 29 30 29 28 27 26 27 27 27 28 27 27 27 27 28 26 22 20 20 18 15 10 7 14 21 25 24 25 29 27 25 25 24 25 26 24 23 22 20 23 25 26 26 26 26 26 25 24 24 24 24 24 24 25 24 23 22 20 19 17 16 14
24 24 24 25 25 26 26 28 29 26 23 23 24 24 25 27 28 28 26 26 26 26 27 27 28 29 29 29 29 27 26 27 28 27 27 26 26 27 26 23 22 22 20 15 11 7 7 12 22 23 24 30 28 24 26 27 27 27 25 25 23 22 23 23 24 26 27 26 26 26 25 24 24 25 25 26 26 26 25 23 22 20 18 17 15
25 26 26 27 27 27 26 27 27 26 24 23 24 25 26 27 28 29 27 26 26 26 27 27 26 28 29 29 29 28 26 25 27 28 26 22 22 24 25 25 23 22 19 16 13 12 11 14 20 21 21 28 28 25 26 28 28 27 26 25 25 24 24 24 23 25 27 27 27 26 26 26 25 25 26 27 28 27 26 25 23 22 20 18 16
25 25 26 28 29 28 27 26 26 26 25 25 25 26 27 25 25 25 25 24 25 26 26 27 26 25 26 27 27 27 26 25 26 29 27 23 20 22 24 24 24 23 20 17 16 18 14 16 19 21 20 24 27 24 23 26 30 30 27 25 25 25 25 23 24 25 27 28 28 27 27 27 26 26 27 28 29 29 28 26 25 23 21 20 18
25 25 27 28 28 28 27 26 26 26 24 23 24 25 25 23 22 24 24 23 24 24 24 25 25 23 23 26 27 26 26 27 28 27 26 24 22 23 24 24 25 25 21 19 20 19 15 15 19 21 20 22 24 23 22 25 28 28 26 25 25 26 25 24 23 23 25 27 28 28 27 27 27 27 28 29 30 30 29 27 26 24 22 21 20
26 26 29 30 28 28 27 26 26 26 24 23 24 23 23 22 22 24 24 22 22 22 22 23 23 23 22 23 25 25 24 26 27 25 23 24 24 25 26 26 25 24 22 20 21 21 18 19 20 19 23 24 23 21 23 26 28 27 26 25 24 25 26 26 25 23 23 25 27 28 28 27 27 28 28 29 30 30 30 28 27 26 24 23 21
26 27 29 30 29 28 29 27 25 26 28 28 28 27 25 24 23 22 21 21 22 21 20 22 23 23 24 24 25 25 24 25 26 25 24 25 24 25 27 26 23 23 23 21 23 23 20 20 20 15 19 23 24 24 24 25 27 28 28 27 24 25 27 28 28 26 24 26 27 27 27 26 27 28 28 28 29 29 29 29 28 27 26 24 23
26 27 29 29 29 31 33 31 26 28 33 35 36 34 31 28 25 22 20 21 23 21 19 20 21 21 22 24 27 27 26 26 26 26 26 27 25 24 26 26 22 22 23 22 22 21 19 20 18 10 12 16 19 26 28 25 26 27 28 29 27 26 27 28 28 27 26 28 30 29 28 28 28 28 28 28 28 29 29 29 29 28 27 26 25
26 27 28 29 29 32 36 36 30 29 37 43 42 38 34 30 28 25 22 20 22 23 21 20 21 20 20 23 26 27 27 27 27 26 27 28 27 26 27 26 24 23 22 22 20 16 17 20 17 9 13 17 17 22 28 27 27 29 28 28 28 27 27 28 28 26 25 28 32 31 30 30 30 30 30 30 30 30 30 30 30 29 28 27 26
26 27 28 29 29 29 33 38 36 31 38 48 45 38 34 31 29 27 24 21 20 22 22 21 21 20 19 20 24 26 26 26 26 25 27 29 29 28 27 27 26 25 24 24 23 21 21 23 20 13 14 18 19 21 28 28 25 28 29 28 27 26 25 24 25 24 24 27 31 32 31 30 30 31 32 32 32 31 32 32 31 30 29 27 26
26 27 28 27 28 29 28 33 37 33 38 50 49 41 37 32 29 28 26 24 21 20 20 20 21 20 19 20 21 22 24 25 25 26 28 29 29 28 28 29 29 27 25 25 27 28 26 23 21 18 17 21 24 25 27 27 22 25 29 29 28 27 23 19 18 20 24 28 30 32 31 30 31 32 33 33 32 32 33 32 31 29 28 26 25
26 26 27 26 27 28 26 29 35 34 37 48 52 47 41 35 31 28 26 24 22 20 20 20 22 22 20 19 19 19 21 23 24 26 27 26 26 27 29 32 32 31 31 29 29 30 29 25 22 23 24 26 27 26 24 23 20 21 26 28 28 28 25 21 18 20 26 30 30 30 30 29 29 32 33 32 31 32 32 31 29 28 28 27 25
26 26 27 26 26 27 29 32 34 31 36 48 53 50 46 40 33 29 25 24 22 20 20 20 22 21 19 18 18 18 19 19 21 23 24 25 25 27 29 30 32 32 33 33 31 29 30 29 26 26 27 29 29 26 21 21 20 20 23 25 26 28 26 24 23 23 27 31 31 28 26 27 30 32 30 28 28 29 30 28 27 26 26 26 23
27 27 27 27 26 27 32 37 33 28 34 46 51 51 50 45 36 29 25 22 21 20 19 20 21 20 19 20 20 20 18 19 20 21 22 23 24 28 31 29 29 31 30 29 28 26 28 30 28 28 29 30 32 31 24 22 21 20 21 22 22 22 21 20 20 18 19 30 34 26 19 23 29 27 23 22 25 26 25 24 22 20 19 19 17
26 26 26 27 28 27 31 35 34 30 34 44 49 50 52 49 39 31 26 22 21 20 20 20 21 20 19 20 20 20 18 17 18 19 21 23 23 25 29 29 28 28 28 27 27 26 27 30 30 31 31 31 34 35 30 26 22 20 20 18 15 15 14 13 13 9 11 24 31 22 14 19 26 23 21 22 24 22 19 17 16 16 17 16 13
25 25 25 26 28 28 29 31 32 31 34 42 48 49 51 51 44 35 31 27 25 23 21 21 21 20 19 18 18 18 18 17 18 19 22 24 23 20 21 24 25 23 22 24 26 26 28 30 29 29 31 33 33 31 29 27 25 23 22 16 11 12 11 8 8 9 10 15 19 17 13 13 19 24 26 25 26 25 21 19 16 15 14 12 10
24 25 25 25 26 27 28 30 31 31 33 41 47 48 49 51 47 40 34 31 27 24 23 23 21 20 19 18 16 17 17 17 19 22 23 24 23 20 19 23 22 19 20 23 25 25 27 29 27 24 26 29 31 30 27 27 27 27 25 18 14 15 13 9 7 7 8 9 11 14 10 7 15 27 29 25 25 25 22 18 17 14 11 10 10
23 23 25 25 25 27 27 28 30 32 34 39 45 47 47 49 48 41 35 33 31 28 27 25 22 18 14 13 15 16 16 17 19 20 21 23 23 21 21 20 18 18 21 24 25 25 23 23 25 26 25 24 26 27 25 24 24 24 23 20 18 16 12 11 9 6 5 8 10 10 9 14 20 27 27 22 20 21 19 16 16 15 14 13 12
23 22 24 24 25 26 26 27 29 31 34 38 43 46 46 47 47 43 38 36 35 31 29 27 24 22 17 10 7 10 13 16 18 18 16 18 18 18 19 15 15 19 22 24 26 26 23 21 24 28 27 23 22 22 20 18 18 18 19 19 19 18 15 14 15 11 4 5 9 11 12 16 20 23 23 17 12 13 16 16 15 16 16 15 13
Wind_Direction
216 212 207 197 187 184 181 184 198 219 235 227 216 215 213 215 222 230 244 228 195 198 196 186 184 168 163 171 161 145 142 145 150 161 158 153 155 157 162 157 150 153 152 147 145 142 136 131 126 126 127 127 127 126 123 124 121 119 117 113 111 109 107 103 98 99 100 97 94 92 90 88 86 82 81 82 82 82 81 83 80 75 74 75 75
221 221 219 207 197 195 192 188 194 206 230 236 222 218 219 217 222 231 234 216 202 207 192 183 193 185 180 184 167 158 159 159 168 176 167 164 158 157 168 162 157 158 152 149 148 144 139 136 137 138 137 134 133 133 128 126 124 124 120 117 120 117 112 107 102 102 103 102 99 96 95 93 90 89 87 85 85 84 84 86 84 77 76 77 77
221 221 223 221 205 202 206 203 196 195 214 231 224 221 223 221 223 227 225 214 205 206 197 189 196 200 196 192 180 174 172 171 174 168 163 166 160 162 173 165 159 156 149 149 150 146 146 148 149 143 136 133 130 128 122 122 126 124 123 123 122 117 110 107 106 104 103 103 104 100 98 97 94 94 94 93 90 87 87 88 87 82 79 82 83
218 220 231 232 216 208 210 211 204 193 202 224 227 221 221 227 227 226 225 213 199 201 204 200 202 207 202 199 193 179 176 180 174 160 158 159 148 167 179 171 164 159 154 155 156 153 156 155 143 130 124 125 124 124 122 125 130 128 126 126 122 116 110 106 105 103 104 105 105 102 98 97 95 96 96 97 97 94 91 91 90 87 84 86 88
214 209 222 223 214 212 212 214 211 198 199 219 230 222 221 230 228 226 227 215 201 197 202 210 212 209 203 199 193 184 183 179 171 165 160 165 173 167 170 170 166 161 158 157 160 165 164 155 142 133 130 124 119 122 128 132 134 134 133 131 125 119 111 105 100 98 103 106 105 103 100 98 98 99 100 100 100 97 95 95 93 89 87 88 88
215 209 206 206 208 212 217 216 216 210 205 210 220 221 223 228 224 219 220 218 212 203 207 217 214 209 207 198 189 193 192 176 174 172 157 161 174 167 163 168 168 164 162 161 168 178 170 156 153 161 161 148 131 127 134 139 138 139 140 140 135 128 122 111 102 99 104 107 107 106 101 100 101 103 103 101 99 97 98 100 97 92 91 90 88
220 221 210 208 213 215 219 217 219 223 215 211 216 220 221 223 221 215 214 217 218 216 218 220 214 210 208 198 191 194 194 181 178 176 164 162 162 163 168 176 178 172 169 169 174 182 173 164 171 173 169 167 160 150 146 144 144 147 150 150 142 135 134 126 119 113 112 112 110 107 103 102 103 104 104 102 98 95 98 103 101 96 94 93 90
217 223 215 214 216 215 219 217 221 226 221 220 223 222 220 223 225 220 219 217 214 218 222 224 218 210 206 202 197 192 191 184 180 182 178 175 171 170 174 185 191 184 182 181 180 184 179 176 183 181 178 180 179 176 169 161 156 157 161 158 149 145 143 139 137 129 123 122 116 111 109 106 106 107 107 104 99 95 97 103 103 99 98 96 92
209 220 220 216 214 213 214 214 216 218 219 223 227 226 224 228 231 227 228 224 219 221 224 227 223 215 213 204 195 190 189 188 187 189 186 188 190 183 181 188 195 194 196 197 191 192 191 189 193 191 191 193 190 189 186 181 175 171 170 164 158 153 151 149 146 139 135 133 127 120 114 111 110 109 108 107 103 99 98 102 103 103 103 100 92
211 220 221 217 217 215 215 214 212 214 218 223 225 227 228 232 234 228 230 231 229 227 227 230 221 222 235 216 192 188 190 192 192 194 192 188 190 191 194 199 201 202 204 207 204 201 200 199 200 198 199 199 197 195 191 189 186 185 179 172 166 157 158 161 150 150 149 139 136 133 124 119 117 113 108 107 106 105 103 106 108 108 107 104 92
213 218 218 217 219 222 223 218 213 215 218 223 226 227 230 234 238 232 227 228 229 229 233 231 215 225 259 241 197 193 196 197 196 199 202 195 194 202 204 204 205 206 205 206 206 206 203 200 199 199 201 201 199 195 192 192 191 192 189 180 175 167 172 173 159 162 158 145 146 147 138 129 127 121 112 106 105 107 111 117 120 116 110 105 93
220 218 216 216 218 223 229 223 218 218 217 223 227 227 231 235 239 235 229 229 231 233 235 229 215 237 270 255 217 212 206 202 202 203 208 204 205 205 198 200 202 202 208 209 204 204 207 203 197 197 199 198 198 195 192 193 193 194 195 190 184 176 178 182 169 166 161 153 155 155 146 138 136 133 120 109 106 108 111 121 127 120 113 106 99
215 216 215 216 219 221 225 225 223 219 216 223 226 226 230 234 237 237 235 235 236 238 235 230 219 219 253 245 229 229 223 213 207 209 218 208 206 209 199 200 200 199 207 209 202 205 209 204 194 192 198 196 193 193 191 191 193 195 196 194 192 184 180 184 171 163 164 162 161 161 155 148 146 142 127 113 112 116 116 119 122 117 113 108 103
211 217 221 222 224 223 222 223 224 222 221 222 225 228 228 229 235 237 238 236 237 237 230 229 213 177 210 238 231 230 232 231 218 214 224 213 207 212 208 209 209 205 204 202 203 211 209 199 189 188 199 198 188 188 188 187 190 193 194 195 195 188 181 177 167 163 166 165 163 163 160 156 154 149 135 123 123 126 125 122 119 117 115 111 107
219 216 221 226 228 226 224 226 226 227 228 227 229 233 230 229 234 237 236 233 234 233 224 222 203 173 187 230 229 224 234 236 228 223 221 215 212 209 211 218 215 209 204 201 204 210 207 198 191 188 192 194 187 183 181 185 190 188 190 193 191 187 180 170 165 167 167 163 160 158 159 162 162 155 142 133 136 134 131 128 122 120 118 112 110
229 222 224 229 233 232 229 228 227 227 229 230 230 232 230 228 232 235 233 228 228 230 224 220 207 179 168 192 241 235 239 220 219 226 221 218 220 212 213 219 216 211 204 204 205 203 204 201 195 190 186 187 187 179 175 185 193 188 188 189 184 181 175 166 167 172 168 160 156 157 163 168 166 165 158 144 143 141 136 133 126 121 117 114 115
237 239 236 234 234 236 235 230 229 228 229 230 228 229 229 227 230 233 231 228 225 225 224 220 215 204 186 169 174 212 239 191 188 223 223 223 224 217 218 221 222 217 206 209 209 197 197 198 194 188 183 183 182 176 181 191 192 184 182 181 177 174 169 167 172 177 168 160 159 164 169 171 168 168 164 151 148 146 140 136 130 123 118 117 118
238 244 245 243 238 236 237 235 233 232 233 233 232 230 228 226 228 231 231 229 224 221 221 219 220 219 206 198 200 186 148 158 161 213 220 223 226 223 223 224 227 220 206 212 211 195 191 190 188 184 179 177 175 179 188 190 184 176 173 172 170 170 171 173 178 178 170 162 163 166 166 168 168 164 159 154 152 149 144 137 130 126 123 122 121
235 237 243 248 247 242 240 241 238 237 238 236 235 234 231 228 228 230 231 226 220 216 217 215 217 220 215 214 222 223 193 168 185 178 202 224 227 230 228 223 228 223 209 213 209 194 189 186 184 181 176 171 175 185 187 179 177 173 169 168 170 172 174 178 181 178 172 167 167 168 166 166 163 159 157 156 155 152 147 140 134 131 129 127 124
247 238 242 247 247 246 246 246 245 244 245 242 240 239 236 232 230 229 229 224 220 218 216 213 211 213 215 218 224 228 224 214 213 209 242 249 222 231 234 225 231 226 210 213 210 194 188 185 181 179 178 176 180 187 180 173 180 178 172 172 173 177 178 180 181 176 172 170 170 171 171 168 161 160 161 160 158 153 146 142 138 136 134 131 126
260 242 243 244 243 245 247 250 251 249 250 249 244 241 239 238 234 231 229 225 223 221 219 217 216 214 212 214 217 222 228 231 230 215 217 246 217 217 224 220 233 230 213 214 211 196 190 185 181 181 182 181 185 190 182 178 185 187 183 181 178 181 184 183 181 177 172 171 173 175 175 169 165 166 166 163 160 155 149 146 143 140 137 131 127
270 255 250 246 243 244 246 249 252 251 253 253 250 245 242 242 240 234 231 228 226 223 222 221 221 219 214 210 206 206 210 223 229 214 208 234 235 219 222 212 219 222 213 215 212 199 195 190 185 186 187 186 187 189 186 185 192 198 194 190 186 185 186 185 182 178 175 175 177 178 175 171 172 172 168 165 161 156 152 149 145 142 137 133 132
280 275 268 262 254 249 249 253 254 253 253 254 255 251 246 245 244 240 236 233 229 224 223 222 221 221 219 216 211 205 205 209 213 206 200 219 225 226 232 216 209 210 208 211 210 200 197 195 192 192 189 190 190 189 190 190 195 202 200 197 192 187 187 187 185 182 179 179 179 178 175 174 176 174 169 165 161 157 154 150 146 142 139 138 138
293 286 281 278 267 254 253 257 255 254 254 254 254 253 251 250 246 242 238 235 231 227 224 222 221 221 220 221 221 215 214 214 207 201 203 215 227 243 234 216 212 218 209 205 205 203 201 197 197 200 193 188 192 197 195 190 194 205 201 199 196 188 187 187 186 185 183 181 179 176 176 177 177 174 168 165 162 159 155 152 148 146 146 146 144
301 297 293 286 274 262 256 257 259 258 259 258 256 253 252 249 247 244 241 237 234 231 229 227 223 222 222 222 222 220 219 216 207 204 206 209 215 235 244 233 226 221 205 196 200 204 205 202 200 201 194 187 192 201 196 188 193 204 199 197 196 189 187 188 188 188 186 183 180 176 176 178 178 173 170 168 164 161 160 158 157 154 154 152 150
303 302 301 294 285 274 265 265 267 263 258 257 257 255 251 248 249 249 245 243 238 232 231 230 227 224 223 223 221 221 222 217 212 212 210 208 208 212 231 257 259 239 205 192 196 202 205 204 203 201 194 190 193 200 198 191 192 198 197 196 195 190 189 189 190 190 189 185 180 178 177 178 178 175 173 171 168 167 168 166 164 162 161 159 156
304 302 301 299 294 287 282 278 274 269 263 257 255 255 253 251 251 249 248 246 241 237 235 232 228 225 223 224 222 221 221 219 216 215 214 217 217 209 203 211 264 258 224 194 196 203 206 200 201 204 195 189 196 203 201 195 192 195 198 198 196 192 192 191 190 190 190 187 183 181 179 179 180 178 177 175 174 175 174 171 170 169 167 165 161
308 306 304 302 300 296 294 290 283 277 269 261 257 256 255 254 253 252 251 246 242 242 240 233 229 227 225 225 222 220 219 217 217 218 221 225 223 215 205 200 214 225 212 205 203 208 209 200 200 207 199 190 196 200 196 193 193 197 202 203 200 194 193 193 191 191 192 189 187 185 183 181 182 182 182 181 181 181 178 175 176 175 173 171 167
319 316 312 308 304 299 296 294 290 285 276 269 266 266 264 257 254 254 252 248 244 241 238 234 229 227 226 225 222 219 217 216 216 218 222 224 223 221 213 209 222 235 197 195 208 208 206 200 198 203 199 194 194 191 189 191 195 200 204 206 203 198 195 194 192 193 194 192 191 189 187 185 185 186 186 187 187 184 181 180 180 180 179 177 174
329 327 324 319 313 306 302 298 294 290 286 279 276 276 274 266 259 256 252 252 249 241 237 235 231 228 227 224 221 219 217 216 217 217 218 221 222 224 221 216 222 238 234 203 203 205 201 198 199 198 193 191 190 185 187 194 197 200 203 205 205 201 197 196 195 195 195 194 194 193 191 189 189 190 190 190 190 187 185 185 185 185 185 183 180
329 328 328 327 323 318 313 306 299 296 294 290 284 278 271 266 262 257 253 250 245 241 239 237 234 232 229 222 218 218 218 217 219 219 218 223 226 226 230 228 220 226 237 234 210 200 196 195 198 199 194 190 187 181 186 198 199 199 201 203 206 204 200 199 197 197 197 197 197 196 194 194 193 194 194 193 192 191 190 190 190 190 189 188 185
328 326 326 327 327 327 324 317 311 307 304 302 297 288 279 274 266 260 257 250 242 242 241 237 235 233 228 223 218 218 219 217 219 220 216 218 220 217 222 227 221 224 239 253 257 204 200 201 200 200 194 187 184 182 186 196 198 197 199 200 204 205 201 201 200 199 199 199 200 199 197 198 198 197 197 195 194 194 194 194 193 194 194 194 193
333 330 327 326 325 326 327 324 319 315 311 308 305 299 294 289 276 267 261 250 246 248 244 239 235 229 226 224 220 220 220 218 218 218 216 217 216 212 214 217 211 212 224 240 247 217 205 200 195 199 193 183 184 184 184 189 191 193 195 196 202 205 202 202 201 201 202 202 202 202 199 200 202 201 200 198 197 196 197 197 197 198 199 200 200
339 337 335 332 328 325 324 324 323 321 314 307 305 301 296 289 281 275 265 252 252 252 244 239 233 226 225 226 223 220 220 221 222 220 219 221 220 218 220 220 215 208 202 209 219 225 248 211 188 191 190 182 184 187 183 186 188 187 189 194 203 207 203 203 202 202 204 204 205 205 203 202 204 205 204 202 200 199 199 200 201 202 204 204 206
345 344 343 342 339 333 328 323 323 324 320 313 310 305 298 289 280 277 270 259 255 250 242 238 233 226 224 225 225 222 219 220 224 227 224 221 222 222 223 224 226 220 206 198 190 192 241 241 202 191 185 180 186 192 188 189 189 185 185 194 203 204 203 206 208 207 206 205 207 208 207 206 206 207 208 206 205 203 202 204 205 206 208 209 211
351 350 348 347 346 345 340 331 326 326 321 317 316 311 304 295 283 279 278 270 261 252 244 241 237 230 223 222 224 224 222 220 222 227 226 221 221 223 223 222 221 221 218 214 203 194 216 238 215 197 188 182 188 195 187 182 186 186 185 191 197 198 201 209 214 215 211 208 208 209 209 209 208 209 210 209 209 207 207 207 208 210 212 213 217
357 356 354 353 352 353 350 342 341 341 333 326 328 323 315 306 292 284 282 277 268 257 248 244 242 237 230 225 223 223 222 219 218 222 223 221 221 222 221 219 217 219 217 214 216 210 212 232 221 199 191 191 192 193 185 177 181 186 187 190 192 194 199 206 212 218 216 211 209 210 211 213 212 212 212 212 212 212 211 212 213 214 216 218 222
1 360 359 359 358 355 352 350 354 1 1 355 351 344 332 320 306 292 282 276 271 261 254 251 246 241 238 232 226 224 221 217 218 220 220 219 219 220 219 215 214 215 209 203 212 212 207 226 228 198 189 197 194 189 189 185 182 183 188 193 194 196 200 202 205 213 216 211 209 210 212 213 215 215 215 215 215 216 216 217 218 219 221 224 227
4 2 1 1 360 359 0 0 0 3 6 5 360 354 345 336 325 310 297 285 274 265 260 260 252 242 240 236 230 226 222 221 223 222 220 219 218 219 218 214 209 209 205 200 207 207 204 224 236 210 189 197 195 193 198 197 188 184 186 190 194 200 203 201 201 207 212 210 207 209 212 214 216 217 218 218 218 219 220 221 223 224 226 229 232
7 4 3 2 2 4 8 9 4 358 2 5 1 356 349 342 335 324 312 298 285 275 267 262 256 247 241 238 236 233 228 226 225 223 222 223 222 222 221 213 203 204 205 203 205 203 199 219 239 228 200 207 201 196 202 205 196 188 186 187 190 199 204 202 201 204 208 207 205 206 210 213 216 218 219 221 222 223 224 225 227 228 230 232 235
8 6 6 5 4 6 9 12 11 2 2 4 1 356 352 346 340 332 319 307 296 287 278 266 258 254 248 243 239 237 233 229 228 227 226 224 223 223 221 212 201 200 201 201 208 206 199 217 235 216 204 224 219 200 204 209 197 187 187 186 187 197 203 200 200 204 207 206 203 203 207 209 214 216 218 220 222 223 225 226 228 230 231 233 236
9 7 7 7 6 7 8 11 13 8 4 4 2 357 354 350 343 337 328 315 303 290 280 270 264 261 259 252 241 235 235 232 230 230 228 225 223 222 222 218 209 201 191 187 199 208 204 211 221 205 200 226 237 222 213 210 196 186 186 183 184 195 200 193 193 200 205 204 201 203 208 210 212 215 217 220 223 224 225 227 228 228 230 232 236
10 9 9 9 8 7 7 8 11 10 3 4 4 360 356 352 345 340 333 323 312 295 284 279 276 273 268 260 251 243 240 236 232 232 229 226 224 222 225 225 219 212 203 189 190 199 202 206 210 205 202 219 238 236 216 204 196 187 186 182 182 192 195 188 185 191 197 201 200 201 209 213 215 217 219 222 224 226 227 229 229 229 231 233 236
7 9 10 11 9 7 5 5 7 7 2 2 4 3 359 355 348 340 332 327 319 303 291 284 282 281 272 262 260 253 245 239 237 235 231 228 228 225 226 229 229 230 228 217 202 197 198 199 201 204 203 210 230 238 217 201 195 188 186 184 184 190 194 193 191 188 193 199 198 199 207 214 216 217 220 223 226 229 231 231 230 230 231 234 237
5 6 7 9 12 11 9 5 2 4 3 1 3 5 2 357 351 343 334 329 323 313 299 289 283 280 271 261 258 253 250 246 239 235 232 230 231 228 226 226 225 226 226 223 218 211 204 198 197 206 209 209 220 227 212 199 200 196 190 188 188 191 195 198 200 199 199 198 196 196 200 208 213 213 212 218 225 229 232 233 232 231 229 230 229
6 5 4 6 11 13 12 9 4 3 3 1 3 5 3 0 356 349 342 336 331 323 312 301 290 279 274 273 264 254 255 256 247 240 233 228 228 228 225 218 214 215 216 215 215 213 206 199 196 205 211 213 218 220 208 197 201 199 194 193 192 193 196 202 205 207 205 201 200 200 194 198 207 202 191 199 213 218 221 222 221 216 208 203 200
9 7 6 7 8 9 9 9 7 5 3 3 6 7 5 4 1 357 355 351 343 334 325 315 303 286 277 279 268 253 254 258 254 247 236 227 224 224 221 218 217 217 216 215 214 211 210 207 202 204 209 213 218 218 210 204 204 198 195 198 197 194 197 203 199 184 184 198 203 203 190 192 197 181 160 172 185 183 182 183 182 179 173 170 171
12 10 10 10 10 9 8 8 8 6 3 5 8 9 8 7 6 6 4 357 347 340 334 328 318 298 280 277 275 266 260 257 253 251 243 231 222 217 217 219 219 214 209 211 214 211 211 209 204 205 210 213 216 217 213 211 211 205 202 206 216 220 215 205 186 160 161 186 198 199 194 194 185 161 145 153 158 148 144 145 145 151 152 147 145
14 13 12 12 12 10 9 10 10 7 6 7 10 12 12 11 11 9 5 357 351 347 342 336 327 311 289 277 281 280 270 263 260 257 253 241 226 216 219 221 214 205 201 205 211 212 211 209 203 203 210 213 215 217 217 216 216 215 212 211 220 227 218 198 184 169 165 174 186 192 186 145 145 146 140 142 147 141 137 137 135 136 135 130 127
13 16 14 13 13 12 9 10 11 10 9 9 12 14 14 14 15 12 5 0 359 357 353 348 345 341 319 287 279 278 270 265 265 261 257 250 234 218 217 215 198 187 191 195 201 205 207 208 206 206 210 212 209 212 217 218 217 218 214 203 196 195 189 182 178 164 170 184 180 170 134 111 130 139 133 130 135 137 141 144 141 139 133 126 121
13 19 19 15 14 14 11 9 9 10 10 10 13 16 16 16 17 16 12 8 4 1 359 357 358 5 6 351 311 286 270 258 257 258 258 255 246 231 223 207 173 175 189 190 189 192 191 189 190 193 196 196 195 199 202 197 193 196 197 193 186 178 170 170 171 162 157 193 182 160 128 120 131 138 136 134 129 135 151 155 147 145 141 131 125